Regional Weather Roundup
Issued by NWS New Orleans/Baton Rouge, LA

Home | Current Version | Previous Version | Text Only | Print | Product List | Glossary On
Versions: 1 2 3 4 5 6 7 8 9 10 11 12 13 14 15 16 17 18 19 20 21 22 23 24 25 26 27 28 29 30 31 32 33 34 35 36 37 38 39 40 41 42 43 44 45 46 47 48 49 50
000
ASUS44 KLIX 202213
RWRLIX
NEW ORLEANS REGIONAL WEATHER ROUNDUP
NATIONAL WEATHER SERVICE NEW ORLEANS LA
400 PM CST MON FEB 20 2017

NOTE: "FAIR" INDICATES FEW OR NO CLOUDS BELOW 12,000 FEET WITH NO
      SIGNIFICANT WEATHER AND/OR OBSTRUCTIONS TO VISIBILITY.
      SKY/WX - SKY CONDITION AND SIGNIFICANT WEATHER.
      TMP - AIR TEMPERATURE.     DP    - DEWPOINT TEMPERATURE.
      RH  - RELATIVE HUMIDITY.   PRES  - PRESSURE.
      HI  - HEAT INDEX.          WCI   - WIND CHILL INDEX.

*  THESE STATIONS ARE NOT NWS OR FAA STATIONS AND ARE NOT UNDER
   NWS QUALITY CONTROL.

LAZ038-040-048-061>063-065>067-069-202300-
SOUTHEAST LOUISIANA

CITY           SKY/WX    TMP DP  RH WIND       PRES   REMARKS
N.O. AUDUBON   NOT AVBL
N.O. INTL ARPT CLOUDY    76  67  73 SE17      29.98F
N.O. LAKEFRONT CLOUDY    75  67  76 SE16      30.00F
N.O. DOWNTOWN*   N/A     76  67  73 SE7       30.00F
RESERVE*       MOCLDY    78  70  78 SE12G17   29.97F
SLIDELL        CLOUDY    74  64  71 SE13      30.00F
BATON ROUGE    CLOUDY    78  67  68 E15       29.93F
BOOTHVILLE     MOSUNNY   72  69  90 E10       30.02S
BELLE CHASSE   CLOUDY    74  68  81 SE10G18   30.00S
BOGALUSA*      CLOUDY    79  57  47 S8G16     30.02S
GALLIANO*      CLOUDY    74  67  79 SE6       29.99F
NEW ROADS*     MOCLDY    77  67  70 SE13G18   29.92S
GONZALES*      MOCLDY    77  68  72 SE7       29.94F
HAMMOND*       CLOUDY    75  61  60 SE14      29.97F
HOUMA*         CLOUDY    75  70  83 SE14      29.98F
PORT FOURCHON* MOCLDY    72  68  88 E13       29.98F

$$

MSZ070-080>082-202300-
SOUTHERN MISSISSIPPI

CITY           SKY/WX    TMP DP  RH WIND       PRES   REMARKS
MCCOMB         CLOUDY    76  61  59 SE12      29.98F
GULFPORT       CLOUDY    72  65  78 SE17      30.03F
BILOXI         MOSUNNY   72  65  78 SE15      30.03F
PASCAGOULA     PTSUNNY   74  60  61 SE12      30.04F

$$

COASTAL OBSERVATIONS
LAKE AND NEARSHORE STATIONS

STATION/POSITION TIME  TEMP    WIND        PRES    WAVE
                       AIR SEA DIR/SP/G            HT/PER
                 (UTC) (F)     (DEG/KT/KT) (MB)    (FT/S)
PASCAGOULA       2148   71     100/ 13/ 18 1017.0
WAVELAND YACHT   2148   69 65  130/ 10/ 12 1016.8
GRAND ISLE       2148   71 67  120/  5/ 10 1016.0
SOUTHWEST PASS   2148          120/ 12/ 13   N/A
NEW CANAL        2148   75 66  140/  5/  9 1014.9
SHELL BEACH      2148   72 69  110/ 18/ 19 1016.1

OFFSHORE STATIONS

STATION/POSITION TIME  TEMP    WIND        PRES    WAVE
                       AIR SEA DIR/SP/G            HT/PER
                 (UTC) (F)     (DEG/KT/KT) (MB)    (FT/S)

$$




USA.gov is the U.S. government's official web portal to all federal, state and local government web resources and services.